Location: D�pe
(52.6057°N, 8.1808°E)
Time: 07:55:12
(UTC+00:00)

Cosmos 2082 - Pass Details

Date: 29 October 2020
Orbit: 832 x 857 km, 71.0° (Epoch: 01 December)

Event Time Altitude Azimuth Distance (km) Brightness Sun altitude
Rises 18:09:52 0° 326° (NNW) 3,438 7.4 -19.8°
Reaches altitude 10° 18:12:22 10° 322° (NW) 2,499 6.7 -20.2°
Maximum altitude 18:17:56 54° 247° (WSW) 1,038 4.4 -21.1°
Drops below altitude 10° 18:23:29 10° 172° (S) 2,485 6.0 -21.9°
Enters shadow 18:25:48 - 168° (SSE) 3,354 6.6 -22.2°
